"America/Chicago Time","Lifetime Energy (kWh)","Power (W)","AC Volts RMS (V) ","AC Amps RMS (mA)","Grid Frequency (Hz)","Inverter Temperature (C)"
"08/06/12 09:54:19","193.8992","156.2","215.88","722","60.0","34"
"08/06/12 09:59:19","193.9115","159.1","215.06","737","60.03","34"
"08/06/12 10:04:20","193.924","161.1","215.19","740","60.03","35"
"08/06/12 10:09:19","193.9366","164.0","215.47","758","60.03","35"
"08/06/12 10:14:18","193.9496","167.3","214.82","768","60.0","35"
"08/06/12 10:19:20","193.9626","168.1","215.55","772","60.03","36"
"08/06/12 10:24:19","193.9759","171.3","215.07","784","59.96","36"
"08/06/12 10:29:19","193.9893","174.1","215.36","800","60.0","36"
"08/06/12 10:34:20","194.0031","176.7","215.58","807","60.0","37"
"08/06/12 10:39:20","194.0169","178.7","215.88","820","60.0","37"
"08/06/12 10:44:19","194.031","181.9","215.7","830","60.03","37"
"08/06/12 10:49:19","194.0451","181.9","215.13","836","60.03","38"
"08/06/12 10:54:18","194.0594","184.7","215.77","848","60.03","38"
"08/06/12 10:59:18","194.0739","186.3","216.42","853","60.0","38"
"08/06/12 11:04:19","194.0885","188.0","217.01","854","60.03","38"
"08/06/12 11:09:19","194.1034","190.3","217.05","863","60.03","38"
"08/06/12 11:14:20","194.1184","190.9","215.93","866","60.03","38"
"08/06/12 11:19:19","194.1333","192.4","216.43","882","60.0","38"
"08/06/12 11:24:20","194.1484","194.4","216.96","882","60.03","38"
"08/06/12 11:29:20","194.1635","191.4","216.78","869","60.0","39"
"08/06/12 11:34:19","194.1787","194.8","215.81","891","60.0","39"
"08/06/12 11:39:18","194.1938","194.8","215.33","888","60.0","39"
"08/06/12 11:44:19","194.209","195.1","215.35","887","60.0","39"
"08/06/12 11:49:19","194.2242","195.2","215.93","892","60.03","39"
"08/06/12 11:54:19","194.2394","195.5","216.46","879","60.0","39"
"08/06/12 11:59:18","194.2545","194.7","215.07","891","60.03","39"
"08/06/12 12:04:19","194.2697","194.6","215.79","891","60.0","39"
"08/06/12 12:09:19","194.2848","194.7","215.48","888","60.0","39"
"08/06/12 12:14:19","194.2998","191.7","215.07","877","60.03","39"
"08/06/12 12:19:20","194.3148","194.6","216.29","886","60.03","39"
"08/06/12 12:24:18","194.33","195.1","217.39","886","60.03","40"
"08/06/12 12:29:18","194.3451","195.5","214.37","896","60.03","40"
"08/06/12 12:34:20","194.3604","194.5","215.33","894","60.0","40"
"08/06/12 12:39:18","194.3755","195.0","215.73","885","60.0","40"
"08/06/12 12:44:19","194.3905","170.8","215.9","784","60.0","39"
"08/06/12 12:49:20","194.4026","53.1","213.21","380","60.0","38"
"08/06/12 12:54:19","194.4158","194.7","217.35","883","60.03","39"
"08/06/12 12:59:18","194.4308","194.6","216.9","901","60.0","39"
"08/06/12 13:04:18","194.4461","196.0","216.53","876","60.07","39"
"08/06/12 13:09:19","194.4597","87.2","212.44","432","60.03","39"
"08/06/12 13:14:19","194.4735","194.8","215.38","890","60.03","39"
"08/06/12 13:19:19","194.4885","190.6","217.61","866","60.03","39"
"08/06/12 13:24:19","194.503","194.8","217.38","878","60.0","39"
"08/06/12 13:29:19","194.5181","195.1","218.34","879","60.0","40"
"08/06/12 13:34:19","194.5326","160.6","216.67","733","60.03","39"
"08/06/12 13:39:18","194.5419","90.0","215.15","435","60.03","38"
"08/06/12 13:44:19","194.553","194.3","217.07","889","60.0","38"
"08/06/12 13:49:19","194.5679","189.6","216.12","859","60.03","39"
"08/06/12 13:54:18","194.5814","174.6","216.08","797","60.03","39"
"08/06/12 13:59:19","194.595","166.5","215.79","766","60.03","39"
"08/06/12 14:04:18","194.6076","176.7","216.31","815","60.03","39"
"08/06/12 14:09:20","194.6214","174.2","216.85","797","60.03","39"
"08/06/12 14:14:19","194.6353","157.1","216.57","725","60.03","40"
"08/06/12 14:19:18","194.6463","153.1","216.89","706","60.0","39"
"08/06/12 14:24:19","194.6574","146.8","216.82","678","60.03","39"
"08/06/12 14:29:19","194.6691","124.3","216.62","581","60.0","39"
"08/06/12 14:34:18","194.6815","146.9","215.92","671","60.0","39"
"08/06/12 14:39:19","194.6929","163.2","216.54","746","60.03","39"
"08/06/12 14:44:19","194.7047","108.1","216.57","515","60.03","39"
"08/06/12 14:49:19","194.718","187.6","217.45","849","60.0","40"
"08/06/12 14:54:20","194.7323","185.9","216.43","848","60.03","40"
"08/06/12 14:59:19","194.7457","131.3","216.16","614","60.03","40"
"08/06/12 15:04:19","194.7584","137.5","216.17","641","60.03","40"
"08/06/12 15:09:20","194.7684","85.5","214.88","415","60.0","39"
"08/06/12 15:14:19","194.7758","68.8","213.7","346","60.0","38"
"08/06/12 15:19:20","194.78","45.3","214.21","379","60.0","37"
"08/06/12 15:24:19","194.784","43.7","213.34","424","60.0","36"
"08/06/12 15:29:19","194.7878","39.7","214.46","321","60.0","35"
"08/06/12 15:34:20","194.7909","38.0","213.61","84","60.0","34"
"08/06/12 15:39:18","194.7931","14.3","213.64","26","60.03","34"
"08/06/12 15:44:18","194.7951","26.7","214.32","227","60.0","33"
"08/06/12 15:49:19","194.7977","40.4","214.06","315","60.0","32"
"08/06/12 15:54:18","194.8005","28.8","213.41","202","60.03","32"
"08/06/12 15:59:19","194.8027","23.6","214.31","76","60.03","32"
"08/06/12 16:04:20","194.8044","19.2","214.72","158","60.03","32"
"08/06/12 16:09:19","194.8061","22.8","214.29","281","60.03","31"
"08/06/12 16:14:18","194.8081","26.3","214.43","105","60.0","31"
"08/06/12 16:19:19","194.8093","13.7","213.13","24","60.03","30"
"08/06/12 16:24:20","194.8104","4.3","213.02","230","60.03","30"
"08/06/12 16:29:20","194.812","28.4","215.32","80","60.03","30"
"08/06/12 16:34:19","194.8145","37.5","214.18","198","60.03","30"
"08/06/12 16:39:19","194.8179","47.2","214.3","375","60.03","30"
"08/06/12 16:44:19","194.8216","43.6","214.22","283","60.03","30"
"08/06/12 16:49:19","194.8242","33.7","214.12","129","60.03","30"
"08/06/12 16:54:18","194.8267","28.0","213.61","118","60.03","30"
"08/06/12 16:59:20","194.8282","12.0","214.15","223","60.03","30"
"08/06/12 17:04:19","194.8293","14.4","214.31","209","60.03","30"
"08/06/12 17:09:20","194.8302","14.2","215.28","58","60.03","30"
"08/06/12 17:14:20","194.8308","0.0","214.04","7","60.03","29"
"08/06/12 17:19:20","194.8314","16.1","215.03","5","60.03","29"
"08/06/12 17:24:19","194.8323","6.9","214.16","198","60.03","29"
"08/06/12 17:29:20","194.8332","12.0","213.74","2","60.03","29"
"08/06/12 17:34:19","194.834","13.7","213.21","3","60.03","28"
"08/06/12 17:39:20","194.8348","44.9","214.21","206","60.03","28"
"08/06/12 17:44:20","194.8375","27.6","214.9","235","60.03","29"
"08/06/12 17:49:20","194.8403","55.0","214.47","107","60.03","29"
"08/06/12 17:54:19","194.8436","37.5","214.55","205","60.03","29"
"08/06/12 17:59:19","194.8472","29.1","214.0","81","60.03","30"
"08/06/12 18:04:19","194.8495","33.9","214.17","41","60.03","30"
"08/06/12 18:09:20","194.8514","35.0","214.94","92","59.96","30"
"08/06/12 18:14:20","194.8548","39.9","214.86","398","60.0","31"
"08/06/12 18:19:19","194.8573","29.0","214.18","77","60.03","31"
"08/06/12 18:24:19","194.8592","20.9","214.42","174","60.03","31"
"08/06/12 18:29:20","194.8607","20.1","214.24","51","60.03","31"
"08/06/12 18:34:20","194.8624","13.7","213.97","111","60.07","31"
"08/06/12 18:39:20","194.8636","14.9","214.27","118","60.03","31"
"08/06/12 18:44:19","194.8641","0.0","214.73","0","60.03","30"
"08/06/12 18:49:19","194.8643","0.0","214.72","0","60.03","30"
"08/06/12 18:54:20","194.8645","4.5","213.47","138","60.03","30"
"08/06/12 18:59:19","194.8648","0.0","213.22","0","60.07","29"
"08/07/12 06:19:22","194.8654","0.0","213.23","0","60.03","19"
"08/07/12 06:24:24","194.8656","0.0","213.09","0","60.03","19"
"08/07/12 06:29:23","194.8659","14.0","212.98","69","60.03","19"
"08/07/12 06:34:22","194.8662","6.4","216.91","222","60.03","19"
"08/07/12 06:39:23","194.8666","10.5","215.42","4","60.03","19"
"08/07/12 06:44:23","194.8671","13.5","215.07","6","60.0","20"
"08/07/12 06:49:24","194.8678","20.0","213.89","193","60.03","20"
"08/07/12 06:54:24","194.869","27.8","214.76","85","60.07","20"
"08/07/12 06:59:22","194.8706","22.7","212.79","19","60.03","20"
"08/07/12 07:04:24","194.8724","18.8","213.54","277","60.03","21"
"08/07/12 07:09:22","194.8745","32.6","214.96","254","60.0","21"
"08/07/12 07:14:22","194.8768","37.3","214.76","276","60.03","22"
"08/07/12 07:19:22","194.8795","41.4","214.66","313","60.03","22"
"08/07/12 07:24:23","194.8825","36.9","214.33","91","60.03","23"
"08/07/12 07:29:23","194.8859","51.8","215.21","350","60.03","23"
"08/07/12 07:34:23","194.8895","41.2","214.8","338","60.07","23"
"08/07/12 07:39:24","194.8933","46.9","214.94","347","60.03","24"
"08/07/12 07:44:22","194.8971","46.2","214.39","113","60.03","24"
"08/07/12 07:49:24","194.9013","66.1","213.41","261","60.03","25"
"08/07/12 07:54:22","194.9052","38.3","214.63","372","60.03","25"
"08/07/12 07:59:23","194.9091","51.8","214.94","371","60.0","26"
"08/07/12 08:04:23","194.9132","68.1","215.51","362","60.03","26"
"08/07/12 08:09:23","194.9175","46.5","215.57","420","60.03","26"
"08/07/12 08:14:23","194.9223","85.8","214.4","422","60.0","27"
"08/07/12 08:19:24","194.9292","90.0","215.27","438","60.03","27"
"08/07/12 08:24:22","194.9363","94.1","215.94","457","60.03","28"
"08/07/12 08:29:23","194.9439","98.8","215.67","472","60.03","28"
"08/07/12 08:34:22","194.9514","99.8","216.28","477","60.03","28"
"08/07/12 08:39:23","194.9596","107.1","216.58","507","60.03","29"
"08/07/12 08:44:24","194.968","110.8","216.14","529","60.0","29"
"08/07/12 08:49:24","194.9768","115.1","217.01","541","60.0","30"
"08/07/12 08:54:23","194.9859","118.8","217.08","557","60.03","30"
"08/07/12 08:59:22","194.9953","121.8","215.7","577","60.0","30"
"08/07/12 09:04:22","195.0049","125.7","214.37","598","60.03","31"
"08/07/12 09:09:24","195.0149","129.8","215.61","610","60.0","31"
"08/07/12 09:14:23","195.0252","133.6","216.57","620","60.0","32"
"08/07/12 09:19:24","195.0357","136.5","216.45","638","60.0","32"
"08/07/12 09:24:22","195.0464","139.4","216.19","648","60.03","32"
"08/07/12 09:29:23","195.0575","142.9","216.42","659","60.0","32"
"08/07/12 09:34:22","195.0687","145.8","216.52","673","60.03","33"
"08/07/12 09:39:23","195.0802","149.3","216.48","687","60.0","33"
"08/07/12 09:44:23","195.0919","153.0","217.21","706","60.03","33"
"08/07/12 09:49:23","195.104","155.3","217.75","710","60.03","34"
"08/07/12 09:54:23","195.1162","158.3","217.8","722","60.03","34"
"08/07/12 09:59:24","195.1286","160.8","217.38","739","60.0","34"
"08/07/12 10:04:23","195.1412","164.0","217.77","750","60.03","35"
"08/07/12 10:09:23","195.154","166.9","217.56","758","60.03","35"
"08/07/12 10:14:22","195.1671","169.4","218.44","772","60.03","35"
"08/07/12 10:19:22","195.1804","171.7","217.68","785","60.03","36"
"08/07/12 10:24:23","195.1938","174.1","217.81","792","60.03","36"
"08/07/12 10:29:24","195.2076","176.3","215.73","810","60.0","37"
"08/07/12 10:34:22","195.2213","178.0","216.7","809","60.0","37"
"08/07/12 10:39:22","195.2352","180.1","216.76","818","60.0","38"
"08/07/12 10:44:22","195.2493","183.0","216.49","835","60.0","38"
"08/07/12 10:49:23","195.2636","184.6","216.58","841","60.0","38"
"08/07/12 10:54:23","195.2781","187.4","218.11","853","60.0","38"
"08/07/12 10:59:23","195.2928","188.5","217.76","856","60.07","38"
"08/07/12 11:04:24","195.3076","192.7","217.12","872","60.0","38"
"08/07/12 11:09:24","195.3226","193.1","221.28","860","60.0","38"
"08/07/12 11:14:24","195.3377","195.1","218.16","879","60.0","38"
"08/07/12 11:19:22","195.3529","195.7","218.52","878","60.0","38"
"08/07/12 11:24:23","195.3681","196.0","218.05","886","60.03","38"
"08/07/12 11:29:23","195.3834","195.5","216.01","888","60.0","38"
"08/07/12 11:34:24","195.3986","195.0","216.98","887","60.03","38"
"08/07/12 11:39:22","195.4137","195.2","218.53","879","60.0","38"
"08/07/12 11:44:23","195.4289","195.4","217.76","879","60.03","38"
"08/07/12 11:49:23","195.4442","196.1","217.33","880","60.03","38"
"08/07/12 11:54:22","195.4593","195.0","218.15","880","60.07","38"
"08/07/12 11:59:23","195.4745","194.8","218.46","885","60.07","39"
"08/07/12 12:04:23","195.4897","195.0","218.26","869","60.03","39"
"08/07/12 12:09:24","195.5049","194.7","217.74","880","60.0","39"
"08/07/12 12:14:24","195.52","194.7","218.1","881","60.0","39"
"08/07/12 12:19:22","195.5352","194.5","217.98","880","60.0","40"
"08/07/12 12:24:23","195.5504","194.8","217.6","870","60.03","39"
"08/07/12 12:29:23","195.5656","195.4","217.26","887","60.0","39"
"08/07/12 12:34:23","195.5808","196.3","218.03","885","60.0","39"
"08/07/12 12:39:22","195.596","196.1","217.73","887","60.0","39"
"08/07/12 12:44:22","195.6112","195.7","217.77","891","60.03","39"
"08/07/12 12:49:23","195.6264","195.1","218.29","881","60.0","39"
"08/07/12 12:54:23","195.6416","194.6","217.45","884","60.0","39"
"08/07/12 12:59:23","195.6568","195.6","218.63","874","60.03","39"
"08/07/12 13:04:23","195.672","195.2","218.7","872","60.0","40"
"08/07/12 13:09:23","195.6872","195.9","217.62","886","60.03","39"
"08/07/12 13:14:24","195.7024","195.9","218.69","863","60.03","39"
"08/07/12 13:19:23","195.7176","195.1","218.38","885","60.03","39"
"08/07/12 13:24:24","195.7328","194.9","217.67","880","60.03","39"
"08/07/12 13:29:23","195.748","195.1","218.12","883","60.0","40"
"08/07/12 13:34:24","195.7632","195.1","218.61","880","60.0","40"
"08/07/12 13:39:22","195.7783","194.4","218.52","882","60.03","40"
"08/07/12 13:44:24","195.7936","195.6","218.3","883","60.03","40"
"08/07/12 13:49:23","195.8088","195.2","218.62","873","60.0","40"
"08/07/12 13:54:23","195.824","195.0","218.79","878","60.03","41"
"08/07/12 13:59:22","195.8391","194.7","218.14","879","60.03","41"
"08/07/12 14:04:22","195.8542","194.9","217.42","882","60.03","40"
"08/07/12 14:09:24","195.8695","192.1","217.46","869","60.0","40"
"08/07/12 14:14:23","195.8843","189.1","217.49","859","60.0","40"
"08/07/12 14:19:23","195.8992","190.5","216.96","868","60.03","39"
"08/07/12 14:24:24","195.9139","185.6","216.37","846","60.07","40"
"08/07/12 14:29:23","195.9282","184.4","217.79","834","60.03","39"
"08/07/12 14:34:23","195.9426","183.5","217.66","831","60.0","39"
"08/07/12 14:39:23","195.9568","180.6","217.39","821","60.03","39"
"08/07/12 14:44:23","195.9707","178.4","217.05","817","60.03","39"
"08/07/12 14:49:23","195.9845","176.0","217.77","800","60.03","40"
"08/07/12 14:54:24","195.998","172.7","216.94","792","60.0","40"
"08/07/12 14:59:24","196.0115","172.4","216.57","789","60.03","39"
"08/07/12 15:04:24","196.0249","170.2","216.83","787","60.03","38"
"08/07/12 15:09:23","196.038","166.8","216.58","770","60.03","38"
"08/07/12 15:14:23","196.0508","162.7","216.16","752","60.0","38"
"08/07/12 15:19:23","196.0635","161.8","216.13","739","60.03","38"
"08/07/12 15:24:22","196.076","159.9","217.18","737","60.0","37"
"08/07/12 15:29:24","196.0884","157.4","217.38","725","60.0","36"
"08/07/12 15:34:22","196.1005","154.2","217.06","704","60.03","35"
"08/07/12 15:39:22","196.1123","150.4","216.7","692","60.03","35"
"08/07/12 15:44:23","196.1239","145.6","216.7","679","60.03","35"
"08/07/12 15:49:22","196.1351","141.5","215.86","659","60.0","36"
"08/07/12 15:54:24","196.1461","138.5","216.14","640","60.0","36"
"08/07/12 15:59:24","196.1567","135.5","216.21","635","60.0","36"
"08/07/12 16:04:23","196.1671","132.4","216.08","616","60.03","36"
"08/07/12 16:09:24","196.1774","129.4","216.17","607","60.0","35"
"08/07/12 16:14:23","196.1872","124.4","216.71","582","60.0","35"
"08/07/12 16:19:24","196.1968","121.5","216.42","571","60.03","35"
"08/07/12 16:24:23","196.206","117.4","215.84","552","60.03","35"
"08/07/12 16:29:24","196.2151","113.6","215.19","539","60.03","34"
"08/07/12 16:34:23","196.2238","110.8","215.96","527","60.03","34"
"08/07/12 16:39:22","196.2322","106.9","215.24","508","60.0","33"
"08/07/12 16:44:22","196.2404","102.4","214.55","494","60.03","33"
"08/07/12 16:49:22","196.2482","98.2","215.47","474","60.03","32"
"08/07/12 16:54:22","196.2556","93.8","215.93","450","60.03","32"
"08/07/12 16:59:23","196.2628","88.8","214.96","432","60.03","32"
"08/07/12 17:04:23","196.2694","84.1","215.33","414","60.03","32"
"08/07/12 17:09:23","196.2759","80.0","215.3","397","60.07","32"
"08/07/12 17:14:24","196.2819","75.6","215.68","375","60.03","32"
"08/07/12 17:19:23","196.2876","71.5","216.39","356","60.07","31"
"08/07/12 17:24:23","196.2929","67.2","214.54","339","60.0","31"
"08/07/12 17:29:24","196.298","62.4","214.99","319","60.03","30"
"08/07/12 17:34:23","196.3022","48.4","214.93","415","60.0","30"
"08/07/12 17:39:23","196.306","55.8","214.4","356","60.03","30"
"08/07/12 17:44:23","196.3099","44.6","215.02","125","60.03","30"
"08/07/12 17:49:22","196.3135","48.5","214.76","371","60.03","30"
"08/07/12 17:54:23","196.3167","43.9","214.65","317","60.03","30"
"08/07/12 17:59:23","196.3197","31.1","214.55","221","60.03","29"
"08/07/12 18:04:22","196.3223","28.1","214.42","159","60.03","29"
"08/07/12 18:09:23","196.3247","32.8","214.72","248","60.0","29"
"08/07/12 18:14:22","196.3268","20.9","214.34","20","60.0","29"
"08/07/12 18:19:23","196.3286","20.0","213.45","252","60.03","29"
"08/07/12 18:24:23","196.33","31.1","214.97","24","60.07","29"
"08/07/12 18:29:23","196.3314","15.6","213.76","31","60.03","28"
"08/07/12 18:34:24","196.3324","3.9","214.43","267","60.03","28"
"08/07/12 18:39:23","196.3333","13.2","214.7","34","60.03","28"
"08/07/12 18:44:23","196.3341","15.2","214.96","77","60.03","28"
"08/07/12 18:49:24","196.3349","3.8","213.97","88","60.0","27"
"08/07/12 18:54:23","196.3357","0.0","214.27","174","60.07","27"
"08/07/12 18:59:24","196.3366","15.8","213.54","30","60.03","27"
"08/07/12 19:04:23","196.3366","11.2","214.03","33","60.0","27"
"08/07/12 19:14:22","196.3386","7.9","213.0","0","60.0","26"
"08/07/12 19:19:23","196.3393","7.4","214.35","0","60.03","26"
"08/07/12 19:24:23","196.3399","15.1","213.55","11","60.03","25"
"08/07/12 19:29:24","196.3403","0.0","213.52","0","60.03","25"
"08/07/12 19:34:22","196.3405","0.0","212.85","0","60.0","25"
"08/08/12 06:19:23","196.3412","0.0","213.41","0","60.03","17"
"08/08/12 06:24:24","196.3414","12.5","213.49","2","60.0","17"
"08/08/12 06:29:28","196.3417","0.0","214.8","0","60.0","17"
"08/08/12 06:34:27","196.3422","0.0","213.85","0","60.03","18"
"08/08/12 06:39:27","196.3426","0.0","214.42","0","60.03","18"
"08/08/12 06:44:28","196.3431","0.0","213.59","0","60.03","18"
"08/08/12 06:49:27","196.3436","15.1","212.93","78","60.03","18"
"08/08/12 06:54:27","196.3444","12.6","213.73","0","60.0","18"
"08/08/12 06:59:27","196.3451","13.7","214.01","9","60.0","18"
"08/08/12 07:04:27","196.346","14.0","214.56","1","60.03","19"
"08/08/12 07:09:27","196.347","17.6","214.57","255","60.03","19"
"08/08/12 07:14:27","196.3482","16.0","214.72","241","60.0","19"
"08/08/12 07:19:28","196.3494","12.3","215.33","177","60.03","19"
"08/08/12 07:24:26","196.3505","16.9","213.95","9","60.03","19"
"08/08/12 07:29:27","196.3523","33.4","214.21","254","60.03","20"
"08/08/12 07:34:27","196.3557","53.1","214.37","388","60.0","20"
"08/08/12 07:39:27","196.3598","42.1","213.68","283","60.03","21"
"08/08/12 07:44:27","196.3633","45.1","214.14","286","60.03","22"
"08/08/12 07:49:27","196.3665","27.8","212.97","77","60.03","22"
"08/08/12 07:54:27","196.3693","43.0","213.73","294","60.03","22"
"08/08/12 07:59:27","196.3718","21.4","213.38","334","60.07","22"
"08/08/12 08:04:28","196.3737","29.9","213.57","112","60.0","22"
"08/08/12 08:09:28","196.3751","11.8","214.06","33","60.03","22"
"08/08/12 08:14:26","196.3762","22.4","212.78","151","60.0","22"
"08/08/12 08:19:27","196.3775","21.7","213.68","32","60.0","22"
"08/08/12 08:24:27","196.3793","24.6","213.94","17","60.0","22"
"08/08/12 08:29:27","196.381","37.4","213.23","116","60.03","22"
"08/08/12 08:34:27","196.3842","40.1","213.82","419","60.03","23"
"08/08/12 08:39:27","196.3872","29.6","213.49","79","60.03","23"
"08/08/12 08:44:27","196.3899","18.0","212.61","172","60.0","23"
"08/08/12 08:49:26","196.3913","16.6","212.91","11","60.0","23"
"08/08/12 08:54:26","196.3929","15.9","213.82","3","60.03","23"
"08/08/12 08:59:27","196.3939","8.2","213.82","0","60.0","23"
"08/08/12 09:04:27","196.3946","13.0","214.33","21","60.03","23"
"08/08/12 09:09:26","196.3961","27.4","213.49","29","60.0","23"
"08/08/12 09:14:27","196.3979","24.8","214.29","166","60.0","23"
"08/08/12 09:19:26","196.4006","45.5","213.94","274","60.03","23"
"08/08/12 09:24:26","196.4034","42.3","213.93","295","60.0","24"
"08/08/12 09:29:27","196.4066","43.1","214.31","167","60.03","24"
"08/08/12 09:34:27","196.4103","42.1","214.48","309","60.03","24"
"08/08/12 09:39:27","196.4144","103.0","214.63","492","60.03","25"
"08/08/12 09:44:28","196.426","79.4","214.53","394","60.0","26"
"08/08/12 09:49:27","196.4317","72.4","213.8","360","60.0","26"
"08/08/12 09:54:26","196.437","61.4","214.7","142","60.0","26"
"08/08/12 09:59:27","196.4409","44.8","213.68","323","60.03","27"
"08/08/12 10:04:26","196.4444","55.7","213.99","106","60.0","27"
"08/08/12 10:09:26","196.4498","114.5","214.4","545","60.03","27"
"08/08/12 10:14:26","196.4571","93.9","213.54","455","60.03","27"
"08/08/12 10:19:27","196.4634","83.3","214.34","410","60.0","28"
"08/08/12 10:24:27","196.4706","86.6","215.0","426","60.03","28"
"08/08/12 10:29:27","196.4781","106.1","214.97","508","60.0","28"
"08/08/12 10:34:26","196.4847","59.9","214.18","430","60.0","28"
"08/08/12 10:39:27","196.4882","39.1","214.24","122","60.0","28"
"08/08/12 10:44:28","196.4918","35.0","213.73","322","60.03","28"
"08/08/12 10:49:28","196.4945","29.1","213.51","136","60.03","28"
"08/08/12 10:54:26","196.4969","20.5","214.07","327","60.03","27"
"08/08/12 10:59:27","196.4988","33.3","214.28","125","60.03","27"
"08/08/12 11:04:27","196.5006","30.9","214.69","135","60.03","27"
"08/08/12 11:09:26","196.5025","23.6","213.98","48","60.03","26"
"08/08/12 11:14:27","196.5049","39.8","214.38","301","60.03","26"
"08/08/12 11:19:27","196.5083","49.3","214.35","363","60.0","26"
"08/08/12 11:24:26","196.5122","45.8","214.34","338","60.03","26"
"08/08/12 11:29:27","196.516","49.3","214.19","348","60.03","26"
"08/08/12 11:34:27","196.5199","53.8","214.08","103","60.0","26"
"08/08/12 11:39:27","196.5238","49.8","213.72","409","60.0","26"
"08/08/12 11:44:27","196.5273","45.0","213.27","107","60.0","26"
"08/08/12 11:49:28","196.5302","44.5","213.84","295","60.03","26"
"08/08/12 11:54:26","196.5338","54.7","214.4","347","60.03","26"
"08/08/12 11:59:26","196.5377","62.3","214.43","290","60.03","26"
"08/08/12 12:04:26","196.5416","56.8","214.74","92","60.0","26"
"08/08/12 12:09:26","196.5454","43.7","214.43","310","60.0","26"
"08/08/12 12:14:27","196.5494","63.3","215.14","364","60.03","26"
"08/08/12 12:19:26","196.5556","100.0","216.38","476","60.03","26"
"08/08/12 12:24:27","196.5624","72.9","214.76","363","60.0","27"
"08/08/12 12:29:27","196.5679","75.9","215.19","379","60.03","27"
"08/08/12 12:34:27","196.5749","99.0","215.78","475","60.03","27"
"08/08/12 12:39:26","196.5837","123.5","213.94","582","60.0","28"
"08/08/12 12:44:26","196.5924","99.9","214.04","483","60.03","28"
"08/08/12 12:49:26","196.6004","92.9","213.88","452","60.07","28"
"08/08/12 12:54:26","196.6072","93.5","214.99","451","60.03","28"
"08/08/12 12:59:27","196.6166","163.6","215.9","755","60.03","29"
"08/08/12 13:04:27","196.6302","173.0","215.83","798","60.03","30"
"08/08/12 13:09:27","196.6428","115.3","215.49","550","60.03","31"
"08/08/12 13:14:26","196.6533","129.3","216.0","598","60.03","31"
"08/08/12 13:19:27","196.6606","83.5","214.69","406","60.03","31"
"08/08/12 13:24:28","196.6664","66.5","214.87","338","60.0","30"
"08/08/12 13:29:28","196.6707","49.5","215.28","165","60.03","30"
"08/08/12 13:34:27","196.6744","40.0","215.31","142","60.03","29"
"08/08/12 13:39:27","196.6775","33.0","214.9","84","60.0","29"
"08/08/12 13:44:27","196.6801","36.5","215.31","227","60.03","28"
"08/08/12 13:49:28","196.6828","37.3","214.45","306","60.03","28"
"08/08/12 13:54:28","196.6861","45.9","214.68","123","60.03","27"
"08/08/12 13:59:26","196.689","33.6","214.19","89","60.03","27"
"08/08/12 14:04:27","196.6924","53.5","214.62","118","60.07","27"